Hourly Weather Cedar Hill

Today, 19 June, Saturday

Time Temperature Precipitation Wind Pressure Humidity
00:00 +26°C° 0 mm 2 mps 740 mmHg 70%
01:00 +26°C° 0 mm 2 mps 739 mmHg 70%
02:00 +25°C° 0 mm 2 mps 739 mmHg 71%
03:00 +25°C° 0 mm 2 mps 738 mmHg 71%
04:00 +25°C° 0 mm 2 mps 738 mmHg 72%
05:00 +24°C° 0 mm 2 mps 738 mmHg 74%
06:00 +24°C° 0 mm 2 mps 739 mmHg 75%
07:00 +26°C° 0 mm 2 mps 739 mmHg 69%
08:00 +28°C° 0 mm 2 mps 739 mmHg 63%
09:00 +29°C° 0 mm 2 mps 739 mmHg 57%
10:00 +31°C° 0 mm 2 mps 739 mmHg 52%
11:00 +32°C° 0 mm 2 mps 739 mmHg 47%
12:00 +34°C° 0 mm 3 mps 739 mmHg 42%
13:00 +35°C° 0 mm 3 mps 738 mmHg 41%
14:00 +35°C° 0 mm 3 mps 738 mmHg 39%
15:00 +36°C° 0 mm 4 mps 738 mmHg 37%
16:00 +35°C° 0 mm 4 mps 737 mmHg 40%
17:00 +35°C° 0 mm 4 mps 737 mmHg 44%
18:00 +34°C° 0 mm 4 mps 737 mmHg 47%
19:00 +32°C° 0 mm 4 mps 737 mmHg 52%
20:00 +30°C° 0 mm 4 mps 737 mmHg 58%
21:00 +28°C° 0 mm 4 mps 737 mmHg 64%
22:00 +28°C° 0 mm 4 mps 737 mmHg 66%
23:00 +27°C° 0 mm 4 mps 737 mmHg 69%

Tomorrow, 20 June, Sunday

Time Temperature Precipitation Wind Pressure Humidity
00:00 +27°C° 0 mm 4 mps 737 mmHg 72%
01:00 +26°C° 0 mm 4 mps 737 mmHg 75%
02:00 +26°C° 0 mm 4 mps 737 mmHg 78%
03:00 +25°C° 0 mm 4 mps 737 mmHg 81%
04:00 +25°C° 0 mm 4 mps 737 mmHg 83%
05:00 +25°C° 0 mm 4 mps 737 mmHg 85%
06:00 +25°C° 0 mm 4 mps 737 mmHg 87%
07:00 +26°C° 0 mm 4 mps 737 mmHg 79%
08:00 +28°C° 0 mm 5 mps 737 mmHg 71%
09:00 +30°C° 0 mm 6 mps 737 mmHg 64%
10:00 +32°C° 0 mm 6 mps 737 mmHg 58%
11:00 +34°C° 0 mm 5 mps 737 mmHg 53%
12:00 +35°C° 0 mm 5 mps 737 mmHg 47%
13:00 +36°C° 0 mm 5 mps 737 mmHg 44%
14:00 +36°C° 0 mm 5 mps 736 mmHg 42%
15:00 +37°C° 0 mm 5 mps 736 mmHg 39%
16:00 +36°C° 0 mm 5 mps 736 mmHg 42%
17:00 +35°C° 0 mm 5 mps 735 mmHg 45%
18:00 +35°C° 0 mm 5 mps 735 mmHg 49%
19:00 +33°C° 0 mm 5 mps 735 mmHg 55%
20:00 +32°C° 0 mm 6 mps 736 mmHg 61%
21:00 +30°C° 0 mm 6 mps 736 mmHg 67%
22:00 +29°C° 0 mm 6 mps 736 mmHg 71%
23:00 +28°C° 0 mm 6 mps 736 mmHg 76%

Day after tomorrow, 21 June, Monday

Time Temperature Precipitation Wind Pressure Humidity
00:00 +27°C° 0 mm 6 mps 737 mmHg 80%
01:00 +27°C° 0 mm 5 mps 736 mmHg 84%
02:00 +26°C° 0 mm 5 mps 736 mmHg 87%
03:00 +26°C° 0 mm 4 mps 736 mmHg 90%
04:00 +26°C° 0 mm 4 mps 737 mmHg 91%
05:00 +26°C° 0 mm 4 mps 737 mmHg 91%
06:00 +26°C° 0 mm 3 mps 737 mmHg 92%
07:00 +26°C° 0 mm 3 mps 738 mmHg 88%
08:00 +27°C° 0 mm 3 mps 738 mmHg 85%
09:00 +28°C° 0 mm 2 mps 739 mmHg 81%
10:00 +29°C° 0 mm 2 mps 739 mmHg 75%
11:00 +31°C° 0 mm 2 mps 739 mmHg 69%
12:00 +32°C° 0 mm 2 mps 739 mmHg 63%
13:00 +34°C° 0.5 mm 2 mps 738 mmHg 61%
14:00 +34°C° 0.5 mm 2 mps 738 mmHg 58%
15:00 +35°C° 0.5 mm 2 mps 738 mmHg 56%
16:00 +31°C° 1.3 mm 3 mps 738 mmHg 65%
17:00 +28°C° 1.3 mm 5 mps 739 mmHg 74%
18:00 +26°C° 1.3 mm 6 mps 739 mmHg 82%
19:00 +24°C° 0.2 mm 6 mps 739 mmHg 81%
20:00 +23°C° 0.2 mm 6 mps 740 mmHg 79%
21:00 +23°C° 0.2 mm 5 mps 740 mmHg 78%
22:00 +22°C° 0 mm 5 mps 740 mmHg 79%
23:00 +22°C° 0 mm 5 mps 741 mmHg 79%

22 June, Tuesday

Time Temperature Precipitation Wind Pressure Humidity
00:00 +22°C° 0 mm 5 mps 741 mmHg 80%
01:00 +21°C° 0 mm 4 mps 741 mmHg 81%
02:00 +21°C° 0 mm 4 mps 741 mmHg 83%
03:00 +21°C° 0 mm 4 mps 741 mmHg 84%
04:00 +21°C° 0 mm 3 mps 741 mmHg 83%
05:00 +21°C° 0 mm 3 mps 741 mmHg 83%
06:00 +21°C° 0 mm 3 mps 741 mmHg 82%
07:00 +21°C° 0 mm 3 mps 742 mmHg 80%
08:00 +22°C° 0 mm 3 mps 742 mmHg 78%
09:00 +22°C° 0 mm 3 mps 742 mmHg 76%
10:00 +25°C° 0 mm 3 mps 742 mmHg 72%
11:00 +27°C° 0 mm 2 mps 741 mmHg 68%
12:00 +28°C° 0 mm 2 mps 741 mmHg 64%
13:00 +29°C° 0 mm 2 mps 741 mmHg 62%
14:00 +30°C° 0 mm 3 mps 740 mmHg 60%
15:00 +31°C° 0 mm 3 mps 740 mmHg 58%
16:00 +31°C° 0 mm 3 mps 739 mmHg 60%
17:00 +30°C° 0 mm 3 mps 739 mmHg 63%
18:00 +30°C° 0 mm 3 mps 739 mmHg 66%
19:00 +29°C° 0 mm 3 mps 739 mmHg 69%
20:00 +28°C° 0 mm 3 mps 739 mmHg 73%
21:00 +28°C° 0 mm 3 mps 739 mmHg 77%
22:00 +27°C° 0 mm 3 mps 739 mmHg 80%
23:00 +26°C° 0 mm 3 mps 740 mmHg 84%

23 June, Wednesday

Time Temperature Precipitation Wind Pressure Humidity
00:00 +26°C° 0 mm 3 mps 740 mmHg 88%
01:00 +25°C° 0 mm 3 mps 739 mmHg 89%
02:00 +25°C° 0 mm 3 mps 739 mmHg 91%
03:00 +25°C° 0 mm 3 mps 739 mmHg 92%
04:00 +25°C° 0 mm 3 mps 739 mmHg 93%
05:00 +25°C° 0 mm 3 mps 739 mmHg 93%
06:00 +25°C° 0 mm 3 mps 740 mmHg 94%
07:00 +27°C° 0 mm 3 mps 740 mmHg 86%
08:00 +29°C° 0 mm 4 mps 740 mmHg 78%
09:00 +30°C° 0 mm 5 mps 741 mmHg 71%
10:00 +33°C° 0 mm 5 mps 741 mmHg 65%
11:00 +34°C° 0 mm 5 mps 740 mmHg 60%
12:00 +35°C° 0 mm 6 mps 740 mmHg 54%
13:00 +36°C° 0 mm 6 mps 740 mmHg 52%
14:00 +38°C° 0 mm 6 mps 740 mmHg 49%
15:00 +38°C° 0 mm 6 mps 740 mmHg 47%
16:00 +37°C° 0 mm 5 mps 739 mmHg 49%
17:00 +36°C° 0 mm 5 mps 739 mmHg 51%
18:00 +35°C° 0 mm 5 mps 739 mmHg 54%
19:00 +34°C° 0 mm 5 mps 739 mmHg 59%
20:00 +33°C° 0 mm 6 mps 739 mmHg 64%
21:00 +32°C° 0 mm 6 mps 740 mmHg 69%
22:00 +30°C° 0 mm 6 mps 740 mmHg 72%
23:00 +29°C° 0 mm 6 mps 740 mmHg 74%

24 June, Thursday

Time Temperature Precipitation Wind Pressure Humidity
00:00 +29°C° 0 mm 5 mps 740 mmHg 76%
01:00 +28°C° 0 mm 5 mps 740 mmHg 79%
02:00 +28°C° 0 mm 5 mps 740 mmHg 81%
03:00 +27°C° 0 mm 5 mps 740 mmHg 83%
04:00 +27°C° 0 mm 5 mps 740 mmHg 85%
05:00 +26°C° 0 mm 5 mps 741 mmHg 87%
06:00 +26°C° 0 mm 5 mps 741 mmHg 88%
07:00 +27°C° 0 mm 5 mps 741 mmHg 82%
08:00 +29°C° 0 mm 6 mps 741 mmHg 76%
09:00 +32°C° 0 mm 6 mps 742 mmHg 69%
10:00 +33°C° 0 mm 6 mps 742 mmHg 63%
11:00 +35°C° 0 mm 6 mps 742 mmHg 57%
12:00 +36°C° 0 mm 5 mps 742 mmHg 51%
13:00 +38°C° 0 mm 6 mps 741 mmHg 49%
14:00 +38°C° 0 mm 6 mps 741 mmHg 46%
15:00 +39°C° 0 mm 6 mps 740 mmHg 44%
16:00 +38°C° 0 mm 6 mps 740 mmHg 46%
17:00 +38°C° 0 mm 6 mps 740 mmHg 48%
18:00 +36°C° 0 mm 6 mps 739 mmHg 50%
19:00 +35°C° 0 mm 6 mps 740 mmHg 56%
20:00 +33°C° 0 mm 6 mps 740 mmHg 62%
21:00 +30°C° 0 mm 6 mps 740 mmHg 68%
22:00 +30°C° 0 mm 6 mps 741 mmHg 69%
23:00 +29°C° 0 mm 6 mps 741 mmHg 69%
Show more

We Need Your Consent

Meteoprog and our Service Providers may store and access personal data such as cookies, device identifiers or other similar technologies on your device and process such data to personalise content and ads, as well as provide social media features and to analyse the traffic.

  • Store and/or access information on your device

    Cookies, device identifiers or other information can be stored or accessed on your device for the purposes indicated above.

  • Personalised ads and content, ad and content measurement, audience insights, and products development

    Ads and content can be personalised based on a profile. More data can be added to better personalise ads and content. Ad and content performance can be measured. Insights about the audience who saw the ads and content can be derived. Such data can be used to develop or improve user’s experience, systems and software.

By clicking ‘I Agree’ you will allow the use of indicated cookies, device identifiers, web beacons or other similar technologies. Your settings can be changed in the browser on your device.

For certain purposes, legitimate interests may be relied on, rather than consent. You can read more about this in our Privacy and Cookie Policy.